DW6743 Weather Reports


Display with metric or nautical units.
time (UTC)temp
F
wind
direction
speed
MPH
gust
MPH
rain 1hr
in
rain 24hr
in
rain mn
in
humidity
%
barometer
mb
20260502201804 55 47 4.0 6.0 0.00 0.00 0.00 80 1011.0
20260502201604 55 47 4.0 8.0 0.00 0.00 0.00 79 1011.0
20260502201304 55 45 6.0 8.0 0.00 0.00 0.00 80 1011.1
20260502200804 55 48 6.0 8.0 0.00 0.00 0.00 80 1010.9
20260502200304 55 52 5.0 9.0 0.00 0.00 0.00 79 1011.0
20260502200110 55 48 6.0 9.0 0.00 0.00 0.00 79 1011.0
20260502194804 55 49 6.0 8.0 0.00 0.00 0.00 79 1011.1
20260502194619 55 40 5.0 9.0 0.00 0.00 0.00 79 1011.1
20260502194304 56 31 5.0 7.0 0.00 0.00 0.00 79 1011.2
20260502193804 56 28 5.0 9.0 0.00 0.00 0.00 78 1011.1
20260502193103 56 2 4.0 8.0 0.00 0.00 0.00 78 1011.1
20260502191804 56 345 3.0 3.0 0.00 0.00 0.00 77 1010.9
20260502191601 56 345 2.0 3.0 0.00 0.00 0.00 77 1010.8
20260502191305 56 345 1.0 3.0 0.00 0.00 0.00 77 1010.8
20260502190804 56 345 1.0 3.0 0.00 0.00 0.00 77 1010.7
20260502190304 56 345 1.0 3.0 0.00 0.00 0.00 77 1010.8
20260502190107 56 345 2.0 4.0 0.00 0.00 0.00 77 1010.7
20260502184804 57 271 2.0 3.0 0.00 0.00 0.00 77 1010.6
20260502184601 56 271 1.0 3.0 0.00 0.00 0.00 76 1010.5
20260502183804 57 271 0.0 2.0 0.00 0.00 0.00 76 1010.6
20260502183305 57 271 0.0 3.0 0.00 0.00 0.00 76 1010.6
20260502183115 56 0 0.0 4.0 0.00 0.00 0.00 76 1010.6
20260502181804 57 300 1.0 2.0 0.00 0.00 0.00 76 1010.7
20260502181601 56 0 0.0 5.0 0.00 0.00 0.00 75 1010.7
20260502181306 57 300 2.0 3.0 0.00 0.00 0.00 75 1010.8
20260502180804 57 287 2.0 3.0 0.00 0.00 0.00 75 1011.0
20260502180304 57 337 3.0 8.0 0.00 0.00 0.00 74 1010.9
20260502180123 57 337 3.0 8.0 0.00 0.00 0.00 74 1010.9
20260502164304 64 263 20.0 29.0 0.00 0.00 0.00 57 1010.8
20260502163101 66 254 17.0 28.0 0.00 0.00 0.00 52 1010.9
20260502161600 67 255 18.0 29.0 0.00 0.00 0.00 50 1011.1
20260502161304 67 263 17.0 26.0 0.00 0.00 0.00 50 1011.2
20260502160804 67 264 18.0 29.0 0.00 0.00 0.00 50 1011.2
20260502151612 67 255 18.0 25.0 0.00 0.00 0.00 52 1011.8
20260502151304 68 246 17.0 24.0 0.00 0.00 0.00 53 1011.9
20260502150804 68 243 15.0 20.0 0.00 0.00 0.00 53 1012.0
20260502150305 67 254 15.0 25.0 0.00 0.00 0.00 53 1012.1
20260502130304 66 259 14.0 24.0 0.00 0.00 0.00 60 1013.7
20260502130109 65 243 16.0 24.0 0.00 0.00 0.00 59 1013.5
20260502123304 65 254 17.0 20.0 0.00 0.00 0.00 60 1013.9
20260502123105 65 239 14.0 20.0 0.00 0.00 0.00 59 1013.8
20260502121804 65 255 16.0 20.0 0.00 0.00 0.00 60 1013.9
20260502121608 65 243 16.0 20.0 0.00 0.00 0.00 60 1013.9
20260502121304 65 253 16.0 20.0 0.00 0.00 0.00 60 1014.0
20260502120804 65 250 15.0 20.0 0.00 0.00 0.00 61 1014.1
20260502120304 65 251 16.0 21.0 0.00 0.00 0.00 61 1014.2
20260502120104 64 256 17.0 21.0 0.00 0.00 0.00 61 1014.1
20260502114804 65 249 18.0 21.0 0.00 0.00 0.00 60 1014.3
20260502114556 64 252 15.0 23.0 0.00 0.00 0.00 60 1014.4
20260502114304 65 255 18.0 22.0 0.00 0.00 0.00 60 1014.4
20260502113804 65 247 17.0 21.0 0.00 0.00 0.00 61 1014.3
20260502113304 64 262 15.0 22.0 0.00 0.00 0.00 61 1014.4
20260502113100 64 242 15.0 23.0 0.00 0.00 0.00 61 1014.4
20260502111804 65 246 18.0 22.0 0.00 0.00 0.00 60 1014.5
20260502111601 65 241 17.0 22.0 0.00 0.00 0.00 59 1014.4
20260502110804 65 249 18.0 21.0 0.00 0.00 0.00 61 1014.6
20260502110304 64 253 15.0 21.0 0.00 0.00 0.00 60 1014.6
20260502104804 65 251 13.0 20.0 0.00 0.00 0.00 59 1014.6
20260502104557 65 252 15.0 23.0 0.00 0.00 0.00 58 1014.7
20260502104304 65 247 17.0 21.0 0.00 0.00 0.00 59 1014.7
20260502103304 64 249 17.0 22.0 0.00 0.00 0.00 61 1014.9
20260502103106 64 253 14.0 23.0 0.00 0.00 0.00 60 1014.9
20260502101804 64 240 16.0 20.0 0.00 0.00 0.00 61 1015.1
20260502101621 63 245 14.0 22.0 0.00 0.00 0.00 60 1014.9
20260502100804 64 255 16.0 22.0 0.00 0.00 0.00 59 1015.3
20260502100304 64 246 16.0 23.0 0.00 0.00 0.00 59 1015.4
20260502100116 64 244 17.0 24.0 0.00 0.00 0.00 59 1015.3
20260502091304 63 255 17.0 24.0 0.00 0.00 0.00 62 1015.7
20260502090804 63 233 17.0 25.0 0.00 0.00 0.00 63 1015.7
20260502090304 62 252 17.0 22.0 0.00 0.00 0.00 63 1015.7
20260502080109 62 229 14.0 23.0 0.00 0.00 0.00 60 1016.0
20260502071304 61 245 16.0 22.0 0.00 0.00 0.00 64 1016.0
20260502070804 61 244 13.0 20.0 0.00 0.00 0.00 65 1016.1
20260502070305 61 255 14.0 20.0 0.00 0.00 0.00 64 1016.2
20260502070057 61 264 12.0 20.0 0.00 0.00 0.00 64 1016.2
20260502064804 60 236 13.0 21.0 0.00 0.00 0.00 68 1016.1
20260502064600 60 239 13.0 19.0 0.00 0.00 0.00 68 1016.2
20260502064304 60 242 10.0 16.0 0.00 0.00 0.00 69 1016.3
20260502063804 59 227 14.0 20.0 0.00 0.00 0.00 70 1016.3
20260502063304 59 237 10.0 20.0 0.00 0.00 0.00 71 1016.4
20260502063104 58 249 9.0 17.0 0.00 0.00 0.00 71 1016.3
20260502061558 57 236 13.0 22.0 0.00 0.00 0.00 71 1016.4
20260502061304 58 242 10.0 14.0 0.00 0.00 0.00 72 1016.7
20260502060804 57 222 13.0 20.0 0.00 0.00 0.00 72 1016.6
20260502060306 57 227 12.0 20.0 0.00 0.00 0.00 71 1016.6
20260502060111 57 235 12.0 20.0 0.00 0.00 0.00 71 1016.6
20260502054804 57 235 14.0 18.0 0.00 0.00 0.00 72 1016.7
20260502054603 56 239 12.0 18.0 0.00 0.00 0.00 72 1016.6
20260502054304 57 232 13.0 18.0 0.00 0.00 0.00 73 1016.8
20260502053804 56 227 12.0 18.0 0.00 0.00 0.00 73 1016.8
20260502053305 56 229 12.0 17.0 0.00 0.00 0.00 74 1016.8
20260502053107 55 235 10.0 16.0 0.00 0.00 0.00 74 1016.7
20260502051804 55 236 13.0 20.0 0.00 0.00 0.00 76 1016.9
20260502051603 54 225 11.0 19.0 0.00 0.00 0.00 76 1016.9
20260502051304 54 233 12.0 20.0 0.00 0.00 0.00 77 1017.0
20260502050804 54 224 10.0 16.0 0.00 0.00 0.00 78 1017.0
20260502050304 54 220 13.0 17.0 0.00 0.00 0.00 78 1017.1
20260502050100 53 225 12.0 17.0 0.00 0.00 0.00 78 1017.0
20260502044804 53 218 12.0 15.0 0.00 0.00 0.00 79 1017.2
20260502044559 52 230 12.0 18.0 0.00 0.00 0.00 78 1017.2
20260502044304 53 220 13.0 15.0 0.00 0.00 0.00 79 1017.2
20260502043804 53 216 13.0 18.0 0.00 0.00 0.00 79 1017.3
20260502043304 53 223 13.0 20.0 0.00 0.00 0.00 79 1017.4
20260502043114 52 206 12.0 19.0 0.00 0.00 0.00 79 1017.3
20260502041559 52 212 14.0 17.0 0.00 0.00 0.00 80 1017.5
20260502041304 52 224 13.0 17.0 0.00 0.00 0.00 80 1017.6
20260502040804 52 221 13.0 17.0 0.00 0.00 0.00 81 1017.5
20260502040305 51 218 13.0 17.0 0.00 0.00 0.00 81 1017.5
20260502040055 51 225 11.0 17.0 0.00 0.00 0.00 81 1017.5
20260502034804 51 216 12.0 17.0 0.00 0.00 0.00 82 1017.8
20260502034558 50 221 12.0 16.0 0.00 0.00 0.00 81 1017.8
20260502034304 51 210 13.0 16.0 0.00 0.00 0.00 82 1017.8
20260502033804 51 210 12.0 15.0 0.00 0.00 0.00 82 1017.9
20260502033059 50 214 10.0 15.0 0.00 0.00 0.00 82 1018.0
20260502031804 50 215 11.0 14.0 0.00 0.00 0.00 82 1018.1
20260502031557 50 217 11.0 14.0 0.00 0.00 0.00 82 1018.2
20260502031304 50 212 11.0 13.0 0.00 0.00 0.00 82 1018.2
20260502030804 50 208 11.0 14.0 0.00 0.00 0.00 82 1018.3
20260502030304 50 211 10.0 13.0 0.00 0.00 0.00 82 1018.4
20260502030100 50 206 9.0 13.0 0.00 0.00 0.00 82 1018.4
20260502024805 50 208 9.0 13.0 0.00 0.00 0.00 82 1018.5
20260502024558 50 209 10.0 13.0 0.00 0.00 0.00 82 1018.5
20260502024304 50 208 9.0 12.0 0.00 0.00 0.00 82 1018.5
20260502023804 50 208 9.0 13.0 0.00 0.00 0.00 82 1018.7
20260502023101 50 212 9.0 13.0 0.00 0.00 0.00 82 1018.8
20260502021804 50 213 10.0 14.0 0.00 0.00 0.00 82 1018.9
20260502021601 50 218 10.0 14.0 0.00 0.00 0.00 82 1018.8
20260502020804 50 205 10.0 13.0 0.00 0.00 0.00 82 1019.0
20260502020304 50 198 9.0 12.0 0.00 0.00 0.00 82 1019.1
20260502020058 50 205 9.0 12.0 0.00 0.00 0.00 81 1019.0
20260502014804 50 199 9.0 12.0 0.00 0.00 0.00 81 1019.4
20260502014558 50 202 10.0 12.0 0.00 0.00 0.00 81 1019.3
20260502013804 50 202 9.0 12.0 0.00 0.00 0.00 81 1019.5
20260502013304 50 206 10.0 12.0 0.00 0.00 0.00 81 1019.5
20260502013059 50 200 10.0 12.0 0.00 0.00 0.00 80 1019.6
20260502011804 50 202 9.0 12.0 0.00 0.00 0.00 80 1019.8
20260502011610 49 205 8.0 12.0 0.00 0.00 0.00 80 1019.8
20260502011304 50 202 9.0 12.0 0.00 0.00 0.00 80 1019.8
20260502010804 49 203 9.0 12.0 0.00 0.00 0.00 79 1019.9
20260502010304 49 205 9.0 12.0 0.00 0.00 0.00 79 1020.0
20260502010058 49 203 9.0 12.0 0.00 0.00 0.00 78 1020.0
20260502004804 49 206 8.0 10.0 0.00 0.00 0.00 78 1020.2
20260502004606 49 208 7.0 9.0 0.00 0.00 0.00 77 1020.2
20260502004304 49 206 7.0 9.0 0.00 0.00 0.00 77 1020.3
20260502003804 49 203 7.0 8.0 0.00 0.00 0.00 77 1020.4
20260502003305 49 203 6.0 10.0 0.00 0.00 0.00 76 1020.5
20260502003101 49 210 6.0 10.0 0.00 0.00 0.00 75 1020.4
20260502001805 51 208 8.0 9.0 0.00 0.00 0.00 76 1020.5
20260502001557 50 212 7.0 10.0 0.00 0.00 0.00 76 1020.5
20260502001304 51 204 8.0 10.0 0.00 0.00 0.00 76 1020.5
20260502000304 51 201 7.0 12.0 0.00 0.00 0.00 76 1020.6
20260502000113 50 210 8.0 11.0 0.00 0.00 0.00 75 1020.6
20260501234804 51 206 8.0 10.0 0.00 0.00 0.00 75 1020.8
20260501234559 51 217 8.0 10.0 0.00 0.00 0.00 74 1020.6
20260501234305 51 199 8.0 9.0 0.00 0.00 0.00 75 1020.7
20260501233804 52 208 8.0 9.0 0.00 0.00 0.00 75 1020.8
20260501233305 52 211 7.0 12.0 0.00 0.00 0.00 75 1020.9
20260501233058 51 218 8.0 12.0 0.00 0.00 0.00 74 1020.7
20260501231804 51 216 7.0 10.0 0.00 0.00 0.00 73 1021.0
20260501231606 51 219 6.0 11.0 0.00 0.00 0.00 72 1021.1
20260501231304 52 212 7.0 10.0 0.00 0.00 0.00 72 1021.1
20260501230804 53 212 7.0 12.0 0.00 0.00 0.00 72 1021.0
20260501230305 53 215 7.0 12.0 0.00 0.00 0.00 72 1021.1
20260501230057 53 227 6.0 10.0 0.00 0.00 0.00 72 1021.1
20260501224804 54 227 8.0 12.0 0.00 0.00 0.00 72 1021.2
20260501224603 53 242 8.0 14.0 0.00 0.00 0.00 71 1021.1
20260501224304 54 231 10.0 13.0 0.00 0.00 0.00 71 1021.3
20260501223804 54 227 9.0 12.0 0.00 0.00 0.00 71 1021.3
20260501223304 54 234 10.0 14.0 0.00 0.00 0.00 70 1021.3
20260501223114 54 228 8.0 13.0 0.00 0.00 0.00 70 1021.3
20260501221804 55 232 10.0 15.0 0.00 0.00 0.00 70 1021.4
20260501221617 54 217 9.0 17.0 0.00 0.00 0.00 69 1021.3
20260501221304 55 240 10.0 15.0 0.00 0.00 0.00 69 1021.3
20260501220826 54 235 11.0 15.0 0.00 0.00 0.00 69 1021.4
20260501220057 54 234 12.0 16.0 0.00 0.00 0.00 68 1021.3
20260501214557 54 210 10.0 14.0 0.00 0.00 0.00 67 1021.5
20260501214304 54 228 10.0 13.0 0.00 0.00 0.00 67 1021.5
20260501213804 55 227 11.0 14.0 0.00 0.00 0.00 67 1021.6
20260501213304 54 231 12.0 15.0 0.00 0.00 0.00 66 1021.7
20260501213057 54 223 11.0 14.0 0.00 0.00 0.00 66 1021.6
20260501211804 55 224 10.0 13.0 0.00 0.00 0.00 65 1021.9
20260501211559 54 226 10.0 13.0 0.00 0.00 0.00 64 1021.8
20260501211306 55 225 10.0 13.0 0.00 0.00 0.00 65 1022.0
20260501210804 55 222 10.0 13.0 0.00 0.00 0.00 64 1022.0
20260501210304 55 224 10.0 14.0 0.00 0.00 0.00 64 1022.0
20260501210057 54 239 11.0 14.0 0.00 0.00 0.00 63 1022.0
20260501204804 54 227 9.0 13.0 0.00 0.00 0.00 64 1022.2
20260501204556 54 227 9.0 15.0 0.00 0.00 0.00 63 1022.0
20260501204304 54 227 11.0 15.0 0.00 0.00 0.00 64 1022.1
20260501203804 54 225 12.0 14.0 0.00 0.00 0.00 64 1022.2
20260501203304 54 222 11.0 14.0 0.00 0.00 0.00 64 1022.2
20260501203056 53 223 10.0 14.0 0.00 0.00 0.00 64 1022.3